Back to catalog

COSMOS 1367 DEB

AliveHEO
NORAD 48266·DEBRIS·🇷🇺 Russia

Launched May 20, 1982 from Plesetsk Cosmodrome

Loading…

Next Passes (next 24 hours)

TLE

FreshSource: Space-Track

Epoch: Sep 12, 2026, 08:22 UTC

1 48266U 82045E   26255.34881296 -.00001064  00000-0 -44897-1 0  9992
2 48266  64.4692  39.4082 7178315  12.4313 358.3502  2.06316417 49426

Track COSMOS 1367 DEB in real time with AllMySat

Download on the App Store